[[{"header":{"parameterUnit":"m.s-1","parameterCategory":1,"la1":30.2991,"la2":30.254,"lo1":-89.0895,"lo2":-89.0444,"dy":0.0017,"dx":0.0017,"nx":28,"ny":28,"refTime":"2024-06-09T09:00:00:Z","depth":0,"parameterNumber":2,"parameterNumberName":"U-component_of_WINDS"},"data":[0,0,0,0,0,0,0,0,0,0,0,0,0,0,0,0,0,0,0,0,0,0,0,0,0,0,0,0,0,0,0,0,0,0,0,0,0,0,0,0,0,0,0,0,0,0,0,0,0,0,0,0,0,0,0,0,0,0,1.6464,1.6466,0,1.6652,1.6654,1.6656,1.6628,1.6625,1.6622,1.6619,1.6829,1.6837,1.6845,0,0,0,0,0,0,0,0,0,0,0,0,0,1.6099,1.6106,1.6464,1.6466,1.6469,1.6651,1.6654,1.6656,1.6629,1.6625,1.6621,1.6618,1.6826,1.6836,1.6846,0,0,0,0,0,0,0,0,0,0,0,0,0,1.627,1.6108,1.6464,1.6476,1.6479,1.6651,1.6654,1.6657,1.663,1.6625,1.662,1.6616,1.6822,1.6835,1.6848,1.7023,0,0,1.6887,1.6892,0,0,0,0,0,0,0,0,1.626,1.6283,1.6472,1.6476,1.6479,1.6611,1.6602,1.6781,1.6631,1.6573,1.6619,1.6613,1.6761,1.6779,1.6825,1.7033,1.7042,1.6888,1.6896,1.6901,1.6905,0,0,0,0,0,0,0,1.6248,1.6275,1.6539,1.6475,1.648,1.6479,1.6497,1.6636,1.6693,1.6578,1.6576,1.6598,1.6763,1.6813,1.683,1.7045,1.6888,1.6899,1.6907,1.6912,1.7409,1.7414,0,0,0,0,0,0,1.623,1.6265,1.6533,1.6544,1.6355,1.6489,1.651,1.6574,1.6691,1.6704,1.6602,1.6596,1.6793,1.6815,1.6837,1.7051,1.6901,1.6913,1.6921,1.7403,1.741,1.7416,0,0,0,0,0,0,1.6223,1.6254,1.6525,1.6404,1.6439,1.65,1.6573,1.658,1.663,1.6709,1.672,1.6642,1.679,1.6819,1.6976,1.7058,1.6919,1.6931,1.7397,1.7406,1.7413,1.748,0,0,0,0,0,0,1.6212,1.6252,1.6315,1.6406,1.6445,1.6656,1.6578,1.6588,1.6651,1.6645,1.6749,1.6762,1.6789,1.6957,1.6989,1.7073,1.6941,1.739,1.7401,1.741,1.7471,1.7489,1.7505,0,0,0,0,0,1.6199,1.633,1.6318,1.6351,1.6524,1.6661,1.6684,1.6707,1.6657,1.6724,1.6775,1.6759,1.7044,1.6974,1.7009,1.7098,1.7385,1.7398,1.741,1.7463,1.7486,1.7505,0,0,0,0,0,0,1.6253,1.6342,1.633,1.6492,1.6568,1.6655,1.674,1.673,1.6826,1.6817,1.6847,1.6872,1.7031,1.7081,1.7001,1.7276,1.7208,1.7228,1.7237,1.7259,1.7276,1.7261,1.6951,0,0,0,0,0,1.6282,1.638,1.6455,1.6592,1.663,1.6678,1.6739,1.6749,1.6832,1.6866,1.6928,1.7013,1.7122,1.7193,1.7298,1.7478,1.7502,1.7557,1.7574,1.7588,1.7606,1.7707,1.7733,1.7457,1.7457,1.7456,0,0,1.6347,1.6408,1.6468,1.6604,1.6664,1.6769,1.6706,1.682,1.69,1.6885,1.7035,1.7084,1.7182,1.7351,1.7429,1.7398,1.7687,1.7604,1.7614,1.7625,1.7722,1.7748,1.7771,1.7465,1.7464,1.7462,0,0,1.6517,1.6572,1.6691,1.6752,1.6842,1.6874,1.6902,1.6991,1.7021,1.7172,1.7162,1.7262,1.7448,1.7518,1.7578,1.7776,1.7766,1.781,1.7901,1.7999,1.8021,1.804,1.8113,1.8138,1.7827,1.7827,1.7827,0,1.6587,1.674,1.6756,1.6871,1.6932,1.6917,1.7042,1.7102,1.7225,1.727,1.7232,1.7465,1.753,1.7716,1.7764,1.7813,1.7851,1.7798,1.8015,1.8035,1.8054,1.8123,1.815,1.7832,1.7832,1.7831,1.7831,0,1.6823,1.6929,1.7016,1.7128,1.72,1.7319,1.7358,1.743,1.7435,1.7473,1.7629,1.7705,1.7825,1.7871,1.788,1.806,1.8037,1.8007,1.794,1.8084,1.815,1.8177,1.7839,1.7837,1.7836,1.7835,0,0,1.7032,1.7149,1.7181,1.7232,1.7331,1.7417,1.7538,1.7649,1.7711,1.7797,1.7902,1.806,1.8032,1.8101,1.8118,1.8204,1.8357,1.8163,1.8166,1.8198,1.8563,1.8585,1.8615,1.8351,1.8356,1.836,1.8555,0,1.7212,1.7418,1.7437,1.7625,1.7726,1.7714,1.782,1.7895,1.7934,1.803,1.8076,1.8187,1.8141,1.8183,1.8267,1.832,1.8431,1.8307,1.8454,1.8459,1.8429,1.865,1.8673,1.8853,1.8581,1.8585,1.8589,0,1.745,1.7536,1.7732,1.7817,1.786,1.7954,1.8059,1.8149,1.8236,1.8259,1.8334,1.834,1.847,1.8397,1.858,1.8495,1.8557,1.8592,1.86,1.8616,1.8532,1.8672,1.8911,1.8939,1.8629,1.8626,1.8623,0,1.7583,1.775,1.7888,1.7933,1.8035,1.8102,1.8149,1.823,1.8296,1.8391,1.8435,1.8545,1.8606,1.8694,1.8731,1.8674,1.8913,1.8842,1.8939,1.8938,1.899,1.8986,1.9243,1.9029,1.9028,1.9028,1.9027,0,1.7783,1.7904,1.7949,1.8035,1.8172,1.8195,1.8332,1.8376,1.8449,1.8548,1.8547,1.8641,1.8683,1.8785,1.8816,1.8964,1.8992,1.9017,1.9024,1.9017,1.9014,1.9059,1.9048,1.9035,1.9033,1.9032,1.9031,0,1.7955,1.799,1.814,1.8224,1.8248,1.8345,1.842,1.8506,1.8543,1.8667,1.8699,1.876,1.888,1.8925,1.9073,1.9094,1.9265,1.9262,1.9234,1.9236,1.933,1.932,1.9625,1.9667,1.9424,1.9426,1.9428,0,1.8079,1.8171,1.8264,1.8326,1.8374,1.8476,1.8542,1.8571,1.8641,1.8747,1.8822,1.8939,1.9035,1.9229,1.929,1.9404,1.9405,1.9503,1.9422,1.9413,1.9408,1.9401,1.9412,1.9519,1.9521,1.9523,1.9525,0,1.8298,1.831,1.8403,1.8503,1.8581,1.8662,1.8742,1.8795,1.8836,1.8917,1.9036,1.911,1.9258,1.9378,1.9494,1.955,1.9547,1.955,1.9578,1.9573,1.9553,1.9566,1.9275,1.9543,1.9541,1.954,1.9539,1.9538,1.8451,1.8532,1.8609,1.8714,1.8775,1.8849,1.8933,1.898,1.9078,1.9197,1.921,1.9339,1.9428,1.9583,1.9644,1.9749,1.9723,1.9765,1.9775,1.9785,1.9792,1.9535,1.9771,1.9771,1.977,1.977,1.9769,0,1.867,1.8718,1.8813,1.8922,1.9005,1.8988,1.9076,1.9149,1.926,1.934,1.9433,1.9572,1.9688,1.9758,1.9875,1.9946,1.9948,1.9977,1.9972,1.9985,1.9808,1.9771,1.9973,1.9973,1.9973,1.9973,1.9973,1.9973,1.8793,1.893,1.8952,1.9122,1.9171,1.9293,1.9345,1.9415,1.9479,1.9632,1.9726,1.9768,1.9846,1.9969,2.0076,2.0094,2.0138,2.0169,2.0186,2.0019,1.9998,1.9978,1.9944,2.0178,2.0179,2.0355,2.0356,2.0357]},{"header":{"parameterUnit":"m.s-1","parameterCategory":1,"la1":30.2991,"la2":30.254,"lo1":-89.0895,"lo2":-89.0444,"dy":0.0017,"dx":0.0017,"nx":28,"ny":28,"refTime":"2024-06-09T09:00:00:Z","depth":0,"parameterNumber":3,"parameterNumberName":"V-component_of_WINDS"},"data":[0,0,0,0,0,0,0,0,0,0,0,0,0,0,0,0,0,0,0,0,0,0,0,0,0,0,0,0,0,0,0,0,0,0,0,0,0,0,0,0,0,0,0,0,0,0,0,0,0,0,0,0,0,0,0,0,0,0,1.0512,1.0513,0,1.0606,1.0607,1.0608,1.0508,1.0504,1.05,1.0497,1.0595,1.0601,1.0607,0,0,0,0,0,0,0,0,0,0,0,0,0,1.0248,1.0253,1.0512,1.0513,1.0514,1.0606,1.0607,1.0608,1.0509,1.0504,1.0499,1.0495,1.0593,1.06,1.0608,0,0,0,0,0,0,0,0,0,0,0,0,0,1.0354,1.0255,1.0511,1.0475,1.0473,1.0606,1.0607,1.0609,1.051,1.0504,1.0498,1.0493,1.0591,1.06,1.0609,1.0782,0,0,1.0637,1.0641,0,0,0,0,0,0,0,0,1.0348,1.0364,1.048,1.0478,1.0476,1.0539,1.055,1.0667,1.0511,1.0496,1.0497,1.049,1.0581,1.0591,1.0621,1.0787,1.0791,1.0638,1.0644,1.0648,1.065,0,0,0,0,0,0,0,1.0341,1.0359,1.0549,1.0481,1.0479,1.0455,1.0464,1.0572,1.057,1.0497,1.049,1.0502,1.0579,1.0613,1.0623,1.0792,1.0638,1.0646,1.0652,1.0656,1.1108,1.1114,0,0,0,0,0,0,1.0337,1.0354,1.0546,1.0552,1.0396,1.0465,1.0474,1.0525,1.0568,1.057,1.0507,1.0497,1.06,1.0612,1.0626,1.0835,1.0648,1.0656,1.0662,1.1102,1.1109,1.1116,0,0,0,0,0,0,1.0332,1.0356,1.0542,1.0451,1.0473,1.0475,1.0533,1.053,1.0563,1.0576,1.0576,1.0542,1.0596,1.0613,1.0745,1.0837,1.0661,1.0669,1.1094,1.1104,1.1113,1.1252,0,0,0,0,0,0,1.0325,1.0354,1.042,1.0453,1.0478,1.0659,1.0538,1.0536,1.0579,1.0567,1.0608,1.061,1.0592,1.0731,1.0754,1.0846,1.0676,1.1086,1.1098,1.111,1.1239,1.1265,1.1287,0,0,0,0,0,1.0316,1.0454,1.0423,1.0447,1.056,1.0664,1.0679,1.0655,1.0587,1.0653,1.0662,1.0608,1.0822,1.0746,1.077,1.0867,1.108,1.1095,1.1109,1.1228,1.126,1.1287,0,0,0,0,0,0,1.0431,1.0458,1.0424,1.0577,1.062,1.0647,1.073,1.0689,1.0752,1.0738,1.0707,1.0717,1.0858,1.0874,1.0789,1.1038,1.094,1.096,1.1023,1.1053,1.1076,1.1071,1.0684,0,0,0,0,0,1.0475,1.0557,1.0576,1.0709,1.0732,1.0728,1.0772,1.0751,1.0793,1.0811,1.0829,1.0873,1.095,1.1002,1.1073,1.124,1.1249,1.1319,1.1343,1.1362,1.1381,1.1474,1.1506,1.1164,1.1164,1.1163,0,0,1.0565,1.059,1.0643,1.0733,1.0763,1.0851,1.0743,1.0839,1.0904,1.0825,1.0952,1.0967,1.1014,1.1165,1.1232,1.1184,1.1478,1.1381,1.1397,1.1405,1.1492,1.1525,1.1554,1.1174,1.1172,1.117,0,0,1.0775,1.0801,1.0916,1.0949,1.0996,1.0992,1.102,1.1055,1.1062,1.1188,1.1132,1.1208,1.1341,1.1378,1.1414,1.164,1.1595,1.1664,1.1791,1.1882,1.1909,1.1933,1.2017,1.2047,1.1682,1.1682,1.1683,0,1.0882,1.101,1.0981,1.1082,1.1125,1.1057,1.1175,1.1208,1.1276,1.1308,1.1252,1.1419,1.1445,1.1606,1.1661,1.1692,1.1725,1.1661,1.1907,1.1931,1.1953,1.2033,1.2064,1.1691,1.169,1.1689,1.1688,0,1.1141,1.1231,1.1319,1.1387,1.1439,1.1548,1.1537,1.1593,1.1567,1.157,1.1701,1.173,1.1808,1.1844,1.1819,1.2002,1.1971,1.1912,1.1813,1.1995,1.2069,1.2099,1.1703,1.17,1.1697,1.1695,0,0,1.1427,1.1479,1.1512,1.1544,1.1591,1.1661,1.1767,1.1843,1.1894,1.1943,1.2034,1.2148,1.2095,1.2136,1.2115,1.2194,1.2376,1.2125,1.2126,1.2174,1.2583,1.263,1.2665,1.2344,1.235,1.2354,1.258,0,1.164,1.1826,1.1804,1.1982,1.2067,1.2004,1.2097,1.2138,1.2143,1.2217,1.2222,1.2306,1.2227,1.2252,1.2327,1.2338,1.2458,1.232,1.2431,1.2435,1.2425,1.2704,1.2753,1.2965,1.2609,1.2614,1.2617,0,1.1915,1.1975,1.2162,1.2199,1.2234,1.2318,1.2388,1.2458,1.2503,1.2501,1.2549,1.2514,1.2623,1.252,1.2671,1.2579,1.2622,1.2634,1.2642,1.2654,1.254,1.2727,1.3031,1.3065,1.2662,1.2658,1.2655,0,1.2109,1.2237,1.2366,1.2395,1.244,1.2502,1.2524,1.2562,1.2611,1.2671,1.2703,1.2775,1.2816,1.2873,1.286,1.2785,1.3016,1.2911,1.302,1.3021,1.3074,1.3072,1.3394,1.3097,1.3096,1.3096,1.3095,0,1.2352,1.247,1.2455,1.2535,1.2665,1.2639,1.2769,1.2783,1.2819,1.2902,1.285,1.2929,1.2905,1.2983,1.2973,1.3102,1.312,1.3124,1.3121,1.3131,1.3131,1.3161,1.3148,1.3104,1.3102,1.3101,1.3099,0,1.2593,1.2587,1.2724,1.2756,1.2767,1.2863,1.2891,1.2967,1.2968,1.3074,1.3097,1.31,1.319,1.3181,1.3281,1.3275,1.3436,1.3413,1.3421,1.3418,1.3529,1.352,1.3885,1.3933,1.3602,1.3605,1.3607,0,1.2749,1.2839,1.2882,1.2933,1.296,1.3044,1.3093,1.307,1.3124,1.3183,1.3253,1.3338,1.3405,1.3551,1.3563,1.364,1.3621,1.3743,1.3633,1.3641,1.3628,1.3624,1.3634,1.3767,1.377,1.3773,1.3776,0,1.303,1.3023,1.3096,1.317,1.323,1.3286,1.3337,1.3383,1.3366,1.3429,1.352,1.3572,1.3675,1.3761,1.3835,1.3858,1.3816,1.381,1.384,1.3853,1.3856,1.386,1.3485,1.3803,1.38,1.3798,1.3797,1.3795,1.3236,1.3314,1.3357,1.3441,1.3477,1.3526,1.3601,1.3612,1.3688,1.377,1.3752,1.3856,1.39,1.3995,1.4026,1.4107,1.4063,1.4106,1.4117,1.4129,1.4144,1.384,1.412,1.4119,1.4119,1.4118,1.4117,0,1.3517,1.3542,1.3619,1.3693,1.376,1.3713,1.3767,1.3827,1.3919,1.3964,1.4031,1.4138,1.4221,1.424,1.4321,1.4383,1.4366,1.4405,1.4402,1.4409,1.4177,1.4145,1.4418,1.4418,1.4418,1.4418,1.4418,1.4418,1.3671,1.3802,1.3801,1.3949,1.3973,1.4075,1.4111,1.4157,1.4193,1.4314,1.4384,1.4395,1.4431,1.4514,1.4589,1.4593,1.4626,1.4675,1.4671,1.4455,1.4425,1.4396,1.4366,1.4681,1.4682,1.4897,1.4899,1.49]}]]